User: anonymous   Login
Location: Easter Hill Village
(37.9235°N, 122.3444°W)
Time: 10:17:05
(UTC+00:00)
Language:

Cosmos 773 Rocket - Orbit

View from above orbital plane
View from above orbital plane
View from above satellite
View from above satellite

Ground track
Ground track

The orbit data is extracted from the following two-line orbital elements,

1  8344U 75094B   19321.45346929 -.00000023  00000-0  12643-5 0  9999
2  8344  74.0556 297.9681 0022472 334.6323  25.3726 14.39142572312741
Epoch (UTC): 17 November 2019 10:52:59
Eccentricity: 0.0022472
inclination: 74.0556°
perigee height: 745 km
apogee height: 777 km
right ascension of ascending node: 297.9681°
argument of perigee: 334.6323°
revolutions per day: 14.39142572
mean anomaly at epoch: 25.3726°
orbit number at epoch: 31274

The dashed part of the orbit path shows where the satellite is in the earth's shadow,  

DLR